Tracking 20941 objects as of 2-Jul-2020
HD Live streaming from Space Station
objects crossing your sky now

THORAD AGENA D DEB

Track THORAD AGENA D DEB now!
10-day predictions


NORAD ID: 4276
Int'l Code: 1969-082DK
Perigee: 646.6 km
Apogee: 686.0 km
Inclination: 70.1 °
Period: 97.9 minutes
Semi major axis: 7037 km
RCS: 0.039 m2 (small)
Launch date: September 30, 1969
Source: United States (US)
Launch site: AIR FORCE WESTERN TEST RANGE (AFWTR)

Note: This is SATELLITE DEBRIS
aabbcc
Your satellite tracking list
Your tracking list is empty




NASA's NSSDC Master Catalog

Two Line Element Set (TLE):
1  4276U 69082DK  20184.55113421 +.00000506 +00000-0 +94739-4 0  9998
2  4276 070.0624 241.0756 0028001 227.0363 132.8434 14.70599011659865
Source of the keplerian elements: AFSPC